[Date Prev][Date Next][Thread Prev][Thread Next] - [Date Index][Thread Index][Author Index]

2 Line ISS Keps 3-20



ISS
1 25544U 98067A   03089.20095229  .00027989  00000-0  35301-3 0  8303
2 25544  51.6339  56.9400 0008540  27.9366  71.1767 15.59329542248685



----
Via the sarex mailing list at AMSAT.ORG courtesy of AMSAT-NA.
To unsubscribe, send "unsubscribe sarex" to Majordomo@amsat.org



AMSAT Top AMSAT Home